Vorticity
6 6 7 8 11 4 8 12 -1 5 10 12 -0 -3 18 -11 -7 -5 26 29 -1 14 4 3 2 2 2 1 4 3 3 2 3 4 5 6 2 3 2 2 2 5 4 5 6 5 5 5 4
8 7 7 5 4 2 19 3 6 9 2 16 13 9 5 15 -5 -10 -14 22 15 15 6 3 2 2 2 3 2 3 2 3 4 3 7 2 4 2 2 2 3 3 4 4 5 5 7 4 5
8 9 10 9 13 8 15 3 10 6 13 5 6 8 6 15 9 -1 -2 13 24 17 7 4 3 1 2 2 4 1 4 3 4 4 5 1 2 1 1 2 3 4 5 5 8 5 3 4 4
7 11 12 5 1 2 10 0 3 8 6 9 3 5 10 -5 15 11 1 5 13 16 11 5 4 3 3 3 -5 10 5 3 5 6 3 4 1 2 3 3 4 5 5 6 8 8 7 6 5
8 8 7 7 9 6 12 3 0 8 4 -2 3 2 8 8 6 15 8 4 8 17 10 8 3 3 3 7 -4 13 3 4 5 6 3 2 2 4 3 4 4 6 6 7 7 10 10 8 6
10 7 2 8 11 11 10 10 3 11 4 4 10 2 7 12 9 9 9 7 10 13 14 8 -0 5 4 3 -3 10 5 4 4 3 2 1 3 3 4 3 4 5 6 7 7 9 11 11 9
8 4 6 8 9 10 5 8 9 11 14 4 2 0 6 1 6 7 6 8 10 12 20 -8 2 8 2 5 1 5 6 4 4 3 3 4 4 4 4 3 3 4 5 6 7 7 7 11 13
7 7 6 10 10 5 9 8 11 8 20 -1 7 14 4 6 6 6 7 8 8 10 15 9 15 15 17 12 5 8 5 5 4 3 3 4 4 4 4 3 3 4 5 6 6 6 6 7 8
9 6 8 7 10 6 12 7 6 8 9 10 14 5 -1 3 6 7 1 7 5 9 8 13 6 9 10 9 9 7 5 2 2 3 4 5 4 3 2 2 4 6 6 5 5 6 5 4 4
8 8 12 5 6 6 3 6 4 3 2 4 5 3 7 6 7 13 0 5 6 8 9 9 11 7 8 9 10 5 3 3 3 5 5 4 3 2 3 5 7 5 5 7 7 7 6 5 4
8 3 8 12 6 -1 -1 5 5 5 7 10 3 1 1 -1 7 7 6 8 9 12 11 7 9 7 7 6 5 4 3 2 5 6 4 4 3 5 7 7 6 7 8 8 8 8 8 8 7
7 10 5 0 5 5 3 -3 1 -2 2 1 2 1 0 3 7 6 7 8 8 10 10 9 7 6 5 4 4 4 5 5 5 4 5 7 9 8 8 9 9 8 7 6 5 5 5 5 5
12 5 7 6 6 5 5 6 3 7 5 1 2 3 4 9 5 4 8 8 8 8 9 7 6 5 5 5 4 6 8 9 9 9 10 11 11 11 10 9 9 9 9 9 9 9 8 7 6
-5 5 9 10 11 6 5 7 3 11 4 6 5 4 6 6 8 12 12 7 5 9 9 7 7 4 4 6 6 6 6 5 9 10 9 9 9 8 7 5 5 6 7 9 10 11 10 10 10
13 12 15 20 11 12 14 20 25 9 15 16 15 11 6 2 11 11 4 5 6 8 6 5 4 4 4 6 7 6 7 8 8 8 7 8 5 6 5 6 8 8 8 9 10 11 13 13 12
15 15 14 8 23 14 10 5 12 14 14 18 16 14 13 14 12 8 6 6 4 5 7 5 3 3 6 9 10 9 7 7 5 7 6 6 4 6 9 11 10 8 9 10 11 10 9 10 12
9 6 3 1 7 -2 9 5 18 1 4 6 12 21 15 11 9 8 7 8 6 5 5 5 4 3 7 9 8 8 8 9 9 7 7 7 9 10 9 8 11 10 7 6 8 9 9 9 9
13 -2 1 4 -2 2 -0 3 1 13 4 5 4 1 14 16 8 7 7 4 6 6 5 6 7 9 12 9 9 9 10 10 8 8 6 7 9 9 13 10 5 7 9 8 9 9 9 8 8
-1 3 5 6 3 6 15 14 11 6 4 9 10 12 7 1 7 14 9 8 6 5 5 5 6 10 11 9 9 10 5 7 5 6 8 9 11 10 4 7 9 7 7 8 9 8 7 7 6
10 7 8 16 25 13 9 11 8 5 2 19 1 4 11 10 8 5 5 6 7 7 8 9 9 10 9 8 7 5 4 3 7 10 12 13 7 6 7 7 8 10 12 10 10 10 11 11 13
7 5 6 5 5 2 14 9 26 9 30 -12 12 18 15 16 17 10 8 8 7 7 8 8 8 9 8 6 4 3 -3 5 7 8 11 6 2 4 5 8 10 9 7 9 9 8 8 8 9
10 21 23 19 14 9 11 4 -13 2 -6 14 12 12 -1 15 11 12 13 14 8 8 9 8 8 9 7 6 9 10 13 7 6 12 9 4 3 3 4 9 9 8 10 9 8 8 8 9 7
6 10 11 14 11 12 10 6 41 18 4 10 17 11 12 2 10 17 18 14 12 11 10 9 6 11 8 2 -3 -2 3 14 12 8 5 3 4 3 8 12 9 10 10 9 10 11 11 10 9
6 10 3 2 8 27 25 -5 24 19 19 6 16 -5 -2 4 20 12 10 16 15 11 11 12 12 -3 -6 6 24 6 11 9 6 5 4 5 5 8 13 10 13 11 11 12 11 11 10 9 8
16 4 12 18 5 -3 6 18 -1 1 23 -5 6 -13 11 15 10 11 14 17 20 16 13 11 7 9 16 4 11 9 10 7 5 5 5 6 9 10 11 13 12 13 12 11 10 9 9 9 9
20 12 -28 9 5 -7 -5 8 27 18 9 9 -17 28 5 14 17 18 16 21 24 19 13 6 4 7 2 7 6 8 7 4 5 7 9 11 10 15 12 14 11 10 10 10 9 10 11 11 10
17 6 25 20 14 24 14 1 -2 14 31 16 13 7 19 10 14 -5 13 16 14 7 5 3 4 10 3 7 8 8 7 6 6 8 11 12 17 9 11 11 10 9 9 10 11 11 11 11 11
-8 1 4 6 15 6 15 3 -2 -3 10 7 1 19 12 17 -2 11 6 13 9 5 3 9 6 5 6 6 7 8 9 10 6 11 16 13 8 11 9 9 10 10 10 10 11 12 12 11 11
-2 13 11 16 4 3 13 8 4 -5 -13 -8 16 4 7 14 8 2 6 9 5 2 8 3 6 4 3 5 10 9 6 9 10 14 9 6 11 10 10 8 10 11 11 11 12 12 10 11 10
11 6 8 -8 17 -0 2 8 -18 6 40 24 13 16 22 17 8 2 9 4 3 3 4 4 2 1 1 5 0 6 -1 15 13 10 9 11 10 9 9 11 9 11 12 11 10 9 9 10 9
Height
3153 3153 3153 3154 3160 3154 3150 3150 3149 3150 3149 3146 3147 3149 3153 3150 3154 3155 3148 3148 3150 3151 3153 3155 3157 3159 3160 3161 3162 3164 3166 3166 3167 3167 3167 3167 3167 3167 3167 3167 3166 3165 3164 3164 3163 3162 3161 3160 3159
3151 3151 3152 3153 3154 3148 3144 3148 3149 3147 3145 3144 3145 3145 3147 3147 3148 3148 3149 3149 3149 3150 3152 3153 3155 3157 3159 3161 3161 3162 3163 3166 3166 3165 3166 3166 3166 3166 3166 3166 3165 3164 3163 3162 3161 3160 3158 3157 3156
3149 3150 3152 3152 3149 3147 3144 3146 3146 3144 3143 3143 3144 3144 3144 3143 3145 3146 3147 3148 3148 3149 3150 3152 3154 3155 3158 3159 3162 3164 3163 3163 3164 3164 3164 3164 3164 3164 3164 3163 3163 3162 3160 3159 3158 3157 3156 3155 3154
3147 3148 3149 3147 3145 3145 3145 3145 3144 3143 3143 3143 3143 3143 3143 3142 3143 3144 3145 3146 3146 3147 3149 3150 3151 3152 3155 3157 3157 3158 3161 3162 3163 3162 3163 3163 3163 3163 3162 3162 3160 3159 3157 3156 3155 3153 3152 3151 3151
3146 3146 3147 3145 3143 3143 3142 3142 3142 3143 3142 3142 3142 3143 3142 3142 3142 3142 3143 3144 3145 3146 3146 3146 3147 3149 3151 3154 3154 3157 3159 3160 3161 3161 3161 3161 3160 3160 3159 3158 3157 3156 3154 3153 3151 3150 3149 3147 3146
3145 3145 3145 3141 3141 3141 3140 3139 3140 3140 3140 3141 3141 3142 3142 3142 3142 3142 3142 3142 3143 3143 3144 3145 3148 3150 3151 3152 3154 3156 3157 3157 3158 3158 3158 3158 3158 3157 3156 3155 3153 3152 3151 3150 3148 3147 3145 3143 3142
3142 3143 3142 3141 3140 3139 3139 3138 3138 3138 3139 3139 3140 3141 3142 3141 3141 3141 3141 3141 3141 3141 3142 3144 3148 3148 3149 3149 3151 3153 3154 3154 3155 3155 3155 3155 3155 3154 3153 3152 3150 3149 3148 3146 3145 3143 3142 3141 3139
3139 3140 3139 3139 3138 3138 3135 3135 3136 3136 3137 3138 3138 3139 3140 3140 3140 3140 3139 3139 3139 3140 3142 3142 3144 3145 3146 3148 3149 3150 3150 3151 3151 3151 3151 3151 3150 3149 3148 3147 3145 3144 3143 3142 3141 3140 3138 3137 3136
3136 3138 3136 3136 3136 3136 3134 3134 3135 3135 3135 3135 3135 3136 3137 3137 3137 3137 3138 3137 3137 3137 3137 3139 3142 3143 3144 3145 3146 3147 3147 3148 3148 3148 3148 3148 3146 3145 3144 3143 3141 3139 3137 3136 3135 3135 3134 3131 3131
3134 3135 3134 3133 3132 3134 3133 3132 3132 3134 3133 3134 3133 3134 3133 3134 3135 3135 3135 3135 3135 3135 3135 3137 3138 3139 3140 3142 3143 3144 3144 3144 3144 3144 3143 3143 3142 3141 3139 3138 3136 3135 3133 3131 3130 3128 3126 3126 3124
3132 3132 3131 3130 3130 3130 3131 3131 3131 3131 3132 3134 3131 3130 3130 3131 3132 3132 3132 3132 3132 3132 3133 3133 3134 3135 3136 3138 3139 3140 3140 3140 3140 3140 3139 3139 3138 3136 3134 3132 3130 3128 3127 3125 3124 3122 3120 3118 3117
3128 3127 3127 3126 3127 3128 3128 3128 3129 3128 3130 3129 3128 3128 3127 3127 3128 3128 3128 3129 3129 3130 3130 3131 3132 3133 3133 3134 3134 3134 3135 3135 3135 3134 3134 3133 3132 3130 3129 3127 3125 3123 3121 3119 3117 3115 3113 3112 3110
3125 3125 3123 3122 3122 3123 3124 3124 3125 3125 3124 3125 3124 3123 3123 3124 3124 3124 3125 3125 3126 3126 3127 3127 3128 3130 3130 3131 3131 3131 3131 3131 3130 3130 3129 3128 3126 3125 3123 3121 3119 3117 3115 3112 3110 3108 3106 3104 3102
3121 3120 3120 3119 3118 3118 3118 3121 3119 3119 3119 3119 3120 3119 3119 3119 3120 3120 3120 3120 3121 3122 3122 3124 3125 3126 3126 3127 3127 3127 3127 3126 3125 3125 3124 3123 3121 3119 3118 3115 3113 3110 3108 3106 3103 3100 3098 3096 3094
3117 3117 3116 3115 3114 3113 3113 3114 3113 3112 3113 3113 3113 3113 3114 3114 3115 3115 3116 3116 3118 3118 3119 3120 3121 3122 3122 3123 3123 3123 3123 3123 3122 3121 3120 3118 3116 3114 3112 3109 3106 3104 3101 3099 3096 3093 3090 3088 3085
3115 3113 3113 3110 3110 3109 3110 3111 3108 3108 3109 3108 3108 3108 3109 3108 3108 3109 3111 3113 3114 3115 3115 3116 3117 3117 3118 3118 3119 3119 3118 3118 3116 3115 3114 3112 3110 3108 3106 3104 3101 3099 3096 3093 3090 3087 3084 3081 3078
3110 3111 3111 3110 3106 3107 3108 3107 3103 3103 3104 3104 3104 3103 3104 3104 3104 3106 3108 3109 3110 3111 3111 3112 3113 3114 3114 3114 3115 3115 3114 3113 3111 3110 3108 3106 3105 3103 3101 3099 3096 3093 3091 3088 3084 3080 3077 3074 3071
3107 3107 3108 3108 3105 3103 3104 3104 3104 3099 3100 3101 3101 3100 3100 3100 3102 3103 3104 3105 3106 3107 3107 3108 3109 3110 3110 3110 3110 3109 3109 3107 3106 3104 3103 3101 3100 3098 3096 3093 3090 3088 3085 3082 3079 3075 3071 3068 3064
3105 3103 3103 3103 3103 3098 3097 3097 3097 3097 3095 3096 3097 3097 3096 3097 3097 3097 3098 3100 3101 3102 3103 3103 3104 3105 3105 3105 3105 3104 3103 3102 3100 3099 3097 3095 3094 3093 3091 3089 3086 3083 3081 3078 3075 3072 3067 3063 3059
3099 3098 3096 3097 3095 3093 3092 3091 3091 3090 3089 3090 3091 3091 3090 3089 3090 3091 3091 3091 3092 3094 3096 3097 3098 3099 3100 3100 3099 3099 3098 3097 3096 3095 3092 3091 3089 3089 3087 3084 3082 3079 3076 3073 3070 3067 3063 3057 3053
3094 3093 3092 3092 3093 3089 3084 3082 3082 3081 3080 3083 3083 3084 3083 3082 3081 3083 3085 3086 3086 3088 3090 3092 3093 3094 3094 3095 3095 3094 3093 3091 3090 3088 3087 3086 3084 3082 3080 3078 3075 3072 3069 3066 3063 3062 3058 3053 3048
3089 3088 3087 3086 3087 3084 3081 3074 3076 3077 3077 3076 3075 3076 3077 3079 3078 3078 3079 3080 3081 3082 3084 3086 3088 3089 3090 3090 3089 3088 3087 3086 3084 3083 3082 3081 3079 3077 3074 3071 3068 3066 3064 3060 3059 3056 3054 3049 3045
3087 3084 3084 3084 3081 3080 3079 3078 3067 3069 3073 3072 3071 3072 3073 3073 3073 3072 3072 3073 3074 3076 3078 3080 3081 3083 3083 3083 3083 3083 3082 3081 3080 3079 3077 3076 3074 3071 3068 3067 3064 3062 3059 3057 3054 3052 3049 3046 3041
3084 3081 3080 3080 3079 3073 3069 3071 3063 3065 3067 3066 3068 3069 3069 3068 3067 3067 3067 3066 3067 3069 3072 3074 3076 3077 3078 3078 3078 3078 3077 3076 3076 3075 3072 3069 3068 3068 3065 3061 3061 3058 3055 3053 3050 3048 3044 3041 3038
3080 3081 3075 3072 3070 3063 3065 3066 3061 3061 3063 3064 3065 3065 3065 3063 3062 3063 3062 3062 3062 3064 3067 3070 3072 3073 3073 3074 3073 3072 3071 3071 3070 3069 3067 3065 3063 3062 3060 3058 3057 3053 3051 3048 3046 3043 3041 3038 3036
3074 3077 3074 3064 3059 3058 3063 3059 3056 3057 3059 3060 3061 3061 3060 3058 3059 3059 3058 3056 3057 3060 3062 3065 3067 3070 3069 3069 3068 3067 3067 3066 3065 3064 3063 3060 3058 3057 3056 3053 3051 3048 3047 3045 3043 3041 3039 3036 3033
3070 3070 3070 3067 3065 3061 3058 3055 3055 3054 3055 3056 3057 3057 3055 3055 3056 3055 3055 3055 3054 3057 3059 3062 3063 3065 3064 3064 3064 3063 3063 3062 3061 3060 3058 3055 3054 3052 3051 3048 3047 3045 3044 3042 3041 3039 3036 3034 3031
3065 3066 3066 3064 3061 3055 3048 3046 3049 3051 3055 3054 3053 3053 3052 3051 3051 3051 3052 3051 3052 3054 3055 3056 3058 3059 3059 3059 3059 3059 3058 3057 3056 3054 3052 3051 3048 3047 3046 3045 3044 3043 3042 3040 3038 3036 3034 3031 3029
3059 3059 3061 3060 3057 3053 3047 3045 3048 3048 3051 3049 3049 3048 3047 3046 3047 3047 3048 3048 3048 3049 3050 3052 3053 3054 3054 3054 3053 3053 3052 3051 3050 3048 3047 3045 3044 3043 3043 3042 3042 3041 3039 3037 3036 3034 3032 3030 3028
3054 3053 3053 3052 3052 3049 3049 3036 3043 3046 3045 3043 3044 3043 3041 3041 3042 3042 3042 3042 3043 3044 3045 3046 3047 3048 3048 3048 3047 3047 3046 3045 3044 3044 3042 3041 3041 3041 3041 3040 3039 3038 3037 3035 3034 3032 3031 3029 3027